Location: Unspecified
(50.7693°N, 0.0000°E)
Time: 03:50:08
(UTC+00:00)

deb Explorer IX - Pass Details

Date: 04 October 2020
Orbit: 537 x 1106 km, 38.8° (Epoch: 19 October)

Event Time Altitude Azimuth Distance (km) Brightness Sun altitude
Rises 18:03:40 0° 251° (WSW) 3,162 ? -6.1°
Reaches altitude 10° 18:06:56 10° 233° (SW) 2,123 ? -6.6°
Maximum altitude 18:10:06 17° 192° (SSW) 1,587 ? -7.1°
Drops below altitude 10° 18:13:02 10° 150° (SSE) 1,932 ? -7.5°
Enters shadow 18:15:09 - 134° (SE) 2,538 ? -7.9°
